Home   Weather   St. Louis   Past weeks
Flag for USA

Past Weather in St. Louis, Missouri, USA — Yesterday and Last 2 Weeks

Now
62 °F

Rain. Fog.


Feels Like: 62 °F
Forecast: 84 / 57 °F
Wind: 5 mph from Southeast

Location: Lambert-St. Louis International Airport

Current Time: May 21, 2019 at 9:59:19 pm

Latest Report: May 21, 2019 at 9:22 pm


Visibility: 4 mi

Pressure: 29.74 "Hg

Humidity: 90%

Dew Point: 59 °F

Location of St. LouisLocation

Past Weather in St. Louis — Graph

°F

St. Louis Temperature Yesterday

Maximum temperature yesterday: 69 °F (at 1:51 pm)
Minimum temperature yesterday: 55 °F (at 4:51 am)
Average temperature yesterday: 62 °F

High & Low Weather Summary for the Past Weeks

 TemperatureHumidityPressure
High91 °F (May 16, 2:51 pm)100% (May 8, 1:32 am)30.19 "Hg (May 8, 1:32 am)
Low44 °F (May 13, 5:51 am)30% (May 18, 3:51 pm)29.62 "Hg (May 19, 2:51 am)
Average63 °F70%29.90 "Hg
* Reported May 6 8:51 pm — May 21 8:13 pm, St. Louis. Weather by CustomWeather, © 2019

Note: Actual official high and low records may vary slightly from our data, if they occured in-between our weather recording intervals... More about our weather records

Advertising

St. Louis Weather History for the Previous 24 Hours

Scroll right to see more
 ConditionsComfort  
Time TempWeatherWind HumidityBarometerVisibility
8:13 pm
Tue, May 21
63 °FHeavy rain. Fog.No wind90%29.78 "Hg4 mi
7:51 pm63 °FThunderstorms. Cloudy.3 mph90%29.73 "Hg9 mi
6:51 pm69 °FThunderstorms. Cloudy.9 mph81%29.64 "Hg8 mi
6:31 pm70 °FThunderstorms. Cloudy.16 mph78%29.62 "Hg8 mi
6:14 pm69 °FCloudy.16 mph81%29.63 "Hg8 mi
5:51 pm70 °FMostly cloudy.20 mph79%29.64 "Hg8 mi
4:51 pm69 °FMostly cloudy.15 mph79%29.69 "Hg8 mi
4:11 pm68 °FOvercast.17 mph76%29.71 "Hg9 mi
4:00 pm68 °FOvercast.16 mph76%29.71 "Hg10 mi
2:51 pm65 °FOvercast.16 mph78%29.75 "Hg10 mi
2:28 pm65 °FOvercast.17 mph76%29.78 "Hg10 mi
1:51 pm63 °FOvercast.14 mph75%29.79 "Hg10 mi
12:51 pm61 °FOvercast.17 mph78%29.81 "Hg10 mi
11:51 am58 °FOvercast.17 mph78%29.84 "Hg10 mi
10:51 am55 °FOvercast.21 mph80%29.85 "Hg10 mi
9:51 am55 °FOvercast.16 mph77%29.88 "Hg10 mi
8:51 am55 °FMostly cloudy.20 mph77%29.89 "Hg10 mi
7:51 am53 °FMore clouds than sun.21 mph80%29.87 "Hg10 mi
6:51 am50 °FMostly cloudy.17 mph83%29.90 "Hg10 mi
5:51 am49 °FLight rain. Mostly cloudy.13 mph84%29.94 "Hg10 mi
4:51 am49 °FMostly cloudy.18 mph86%29.93 "Hg10 mi
3:51 am50 °FLight rain. Overcast.20 mph89%29.97 "Hg10 mi
3:08 am51 °FRain. Overcast.15 mph89%30.00 "Hg7 mi
2:43 am52 °FStrong thunderstorms. Fog.9 mph94%30.05 "Hg3 mi
2:19 am54 °FStrong thunderstorms. Fog.18 mph82%30.06 "Hg2 mi
1:51 am53 °FThunderstorms. Overcast.20 mph80%29.88 "Hg8 mi
1:32 am54 °FThunderstorms. Overcast.25 mph74%29.90 "Hg10 mi
12:51 am57 °FLight rain. Mostly cloudy.21 mph67%29.90 "Hg10 mi
11:51 pm
Mon, May 20
59 °FOvercast.16 mph60%29.94 "Hg10 mi
10:51 pm60 °FMostly cloudy.14 mph56%29.99 "Hg10 mi
9:51 pm60 °FMostly cloudy.12 mph58%30.01 "Hg10 mi
Weather by CustomWeather, © 2019

See weather overview